This is the latest recevied weather packets stored in our database for station/object ZS1DFR-1. If no packets are shown the sender has not sent any weather packets the latest 10 day(s).
| Time | Temp. | Humidity | Pressure | Rain* | Wind** | Luminosity | Snow |
|---|---|---|---|---|---|---|---|
| 1778136817 | 15.56° C | 78% | 1020 hPa | 0 mm | - | - | - |
| 1778135917 | 15.56° C | 78% | 1020 hPa | 0 mm | - | - | - |
| 1778135016 | 14.44° C | 83% | 1019.7 hPa | 0 mm | - | - | - |
| 1778134116 | 14.44° C | 83% | 1019.7 hPa | 0 mm | - | - | - |
| 1778133216 | 14.44° C | 81% | 1019.5 hPa | 0 mm | - | - | - |
| 1778132316 | 14.44° C | 81% | 1019.5 hPa | 0 mm | - | - | - |
| 1778131416 | 14.44° C | 82% | 1019.3 hPa | 0 mm | - | - | - |
| 1778130516 | 14.44° C | 82% | 1019.3 hPa | 0 mm | - | - | - |
| 1778129616 | 13.33° C | 92% | 1019.2 hPa | 0 mm | - | - | - |
| 1778128716 | 13.33° C | 92% | 1019.2 hPa | 0 mm | - | - | - |
| 1778127816 | 12.78° C | 94% | 1019.3 hPa | 0 mm | - | - | - |
| 1778126917 | 12.78° C | 94% | 1019.3 hPa | 0 mm | - | - | - |
| 1778126016 | 13.33° C | 94% | 1019.1 hPa | 0 mm | - | - | - |
| 1778125116 | 13.33° C | 94% | 1019.1 hPa | 0 mm | - | - | - |
| 1778124216 | 13.33° C | 94% | 1019 hPa | 0 mm | - | - | - |
| 1778123316 | 13.33° C | 94% | 1019 hPa | 0 mm | - | - | - |
| 1778122416 | 13.33° C | 94% | 1019.1 hPa | 0 mm | - | - | - |
| 1778121516 | 13.33° C | 94% | 1019.1 hPa | 0 mm | - | - | - |
| 1778120616 | 13.89° C | 93% | 1019 hPa | 0 mm | - | - | - |
| 1778119716 | 13.89° C | 93% | 1019 hPa | 0 mm | - | - | - |
| 1778118816 | 14.44° C | 92% | 1019.2 hPa | 0 mm | - | - | - |
| 1778117916 | 14.44° C | 92% | 1019.2 hPa | 0 mm | - | - | - |
| 1778117016 | 14.44° C | 92% | 1019.2 hPa | 0 mm | - | - | - |
| 1778116116 | 14.44° C | 92% | 1019.2 hPa | 0 mm | - | - | - |
| 1778115216 | 14.44° C | 91% | 1019.3 hPa | 0 mm | - | - | - |
* Rain latest hour (hover to see other rain measurements)
** Current wind speed in m/s (hover to see current wind gust speed)